GW1637 Weather Reports


time (UTC)temp
C
wind
direction
speed
KPH
gust
KPH
rain 1hr
cm
rain 24hr
cm
rain mn
cm
humidity
%
barometer
mb
20260506150502 0 80 4.8 4.8 0.05 0.00 0.00 97 1018.4
20260506145959 0 106 3.2 8.0 0.05 0.00 0.00 97 1018.4
20260506145456 0 85 3.2 4.8 0.00 0.00 0.00 97 1018.3
20260506144954 0 109 1.6 3.2 0.00 0.00 0.00 97 1018.3
20260506144450 0 90 3.2 3.2 0.00 0.00 0.00 97 1018.1
20260506143948 0 90 1.6 3.2 0.00 0.00 0.00 97 1018.2
20260506143445 -1 90 1.6 4.8 0.00 0.00 0.00 97 1018.1
20260506142944 0 105 1.6 3.2 0.00 0.00 0.00 97 1017.8
20260506142441 0 90 1.6 4.8 0.00 0.00 0.00 97 1018.0
20260506141939 0 83 1.6 3.2 0.00 0.00 0.00 97 1017.8
20260506141436 0 96 0.0 4.8 0.00 0.00 0.00 97 1018.1
20260506140935 0 90 3.2 3.2 0.00 0.00 0.00 97 1017.7
20260506140431 0 110 3.2 3.2 0.00 0.00 0.00 97 1018.0
20260506135928 0 90 0.0 3.2 0.00 0.00 0.00 97 1017.8
20260506135426 0 90 1.6 3.2 0.00 0.00 0.00 97 1017.8
20260506134922 0 78 1.6 3.2 0.00 0.00 0.00 97 1018.0
20260506134418 0 106 3.2 3.2 0.00 0.00 0.00 97 1017.6
20260506133915 0 78 1.6 3.2 0.00 0.00 0.00 97 1017.6
20260506133411 0 102 1.6 3.2 0.00 0.00 0.00 97 1017.5
20260506132908 0 105 1.6 3.2 0.00 0.00 0.00 97 1017.5
20260506132405 -1 90 1.6 3.2 0.00 0.00 0.00 97 1017.7
20260506131904 0 96 3.2 3.2 0.00 0.00 0.00 97 1017.5
20260506131359 0 96 1.6 3.2 0.00 0.00 0.00 97 1017.6
20260506130856 0 111 0.0 3.2 0.00 0.00 0.00 97 1017.2
20260506130353 0 90 1.6 3.2 0.00 0.00 0.00 97 1017.2
20260506125851 0 98 1.6 3.2 0.00 0.00 0.00 97 1017.1
20260506125349 0 95 3.2 3.2 0.00 0.00 0.00 97 1017.2
20260506124847 0 78 1.6 3.2 0.00 0.00 0.00 97 1016.8
20260506124344 0 97 1.6 3.2 0.00 0.00 0.00 97 1016.8
20260506123841 0 112 3.2 3.2 0.00 0.00 0.00 97 1016.8
20260506123340 0 95 3.2 3.2 0.00 0.00 0.00 97 1016.7
20260506122837 0 84 3.2 3.2 0.00 0.00 0.00 97 1016.7
20260506122333 0 105 1.6 3.2 0.00 0.00 0.00 97 1016.8
20260506121832 -1 80 3.2 3.2 0.00 0.00 0.00 97 1016.8
20260506121328 -1 63 3.2 3.2 0.00 0.00 0.00 97 1016.4
20260506120825 -1 90 3.2 4.8 0.00 0.00 0.00 97 1016.7
20260506120323 -1 96 3.2 3.2 0.00 0.00 0.00 97 1016.8
20260506115820 -1 57 4.8 4.8 0.00 0.00 0.00 97 1016.5
20260506115318 -1 90 3.2 4.8 0.00 0.00 0.00 97 1016.3
20260506114816 -1 75 3.2 3.2 0.00 0.00 0.00 97 1016.3
20260506114314 -1 84 0.0 3.2 0.00 0.00 0.00 97 1016.2
20260506113812 -1 95 3.2 3.2 0.00 0.00 0.00 97 1016.3
20260506113309 -1 110 3.2 3.2 0.00 0.00 0.00 97 1016.3
20260506112806 -1 90 0.0 3.2 0.00 0.00 0.00 97 1016.2
20260506112305 -1 81 3.2 3.2 0.00 0.00 0.00 97 1016.3
20260506111800 -1 74 3.2 3.2 0.00 0.00 0.00 97 1016.2
20260506111258 -1 90 0.0 3.2 0.00 0.00 0.00 97 1015.8
20260506110755 -1 102 1.6 4.8 0.00 0.00 0.00 97 1015.9
20260506110253 -1 96 1.6 3.2 0.00 0.00 0.00 97 1016.2
20260506105749 -1 117 3.2 4.8 0.00 0.00 0.00 97 1015.9
20260506105246 -1 78 1.6 3.2 0.00 0.00 0.00 97 1016.2
20260506104744 -1 90 1.6 3.2 0.00 0.00 0.00 97 1015.9
20260506104241 -1 61 3.2 3.2 0.00 0.00 0.00 97 1015.8
20260506103738 -1 90 1.6 3.2 0.00 0.00 0.00 97 1015.8
20260506103235 -1 83 1.6 4.8 0.00 0.00 0.00 97 1015.9
20260506102733 -1 79 3.2 3.2 0.00 0.00 0.00 97 1016.1
20260506102231 -1 86 3.2 3.2 0.00 0.00 0.00 97 1016.1
20260506101728 0 84 3.2 3.2 0.00 0.00 0.00 97 1016.1
20260506101224 0 71 1.6 4.8 0.00 0.00 0.00 97 1016.2
20260506100722 -1 90 1.6 3.2 0.00 0.00 0.00 97 1016.2
20260506100220 -1 90 3.2 4.8 0.00 0.00 0.00 97 1016.1
20260506095718 0 78 1.6 3.2 0.00 0.00 0.00 97 1016.3
20260506095215 -1 71 3.2 3.2 0.00 0.00 0.00 97 1016.3
20260506094712 -1 48 3.2 6.4 0.00 0.00 0.00 97 1016.4
20260506094210 0 75 1.6 3.2 0.00 0.00 0.00 97 1016.1
20260506093709 0 80 3.2 3.2 0.00 0.00 0.00 97 1016.1
20260506093205 0 90 0.0 3.2 0.00 0.00 0.00 97 1015.9
20260506092703 0 96 1.6 3.2 0.00 0.00 0.00 97 1015.8
20260506092200 0 90 1.6 3.2 0.00 0.00 0.00 97 1015.8
20260506091658 0 77 1.6 3.2 0.00 0.00 0.00 97 1015.6
20260506091155 0 111 1.6 4.8 0.00 0.00 0.00 97 1015.9
20260506090653 0 97 0.0 3.2 0.00 0.00 0.00 97 1015.9
20260506090149 0 84 0.0 3.2 0.00 0.00 0.00 97 1015.8
20260506085646 0 95 3.2 3.2 0.00 0.00 0.00 97 1015.8
20260506085142 0 101 3.2 3.2 0.00 0.00 0.00 97 1015.7
20260506084639 0 105 1.6 3.2 0.00 0.00 0.00 97 1015.9
20260506084136 0 106 3.2 3.2 0.00 0.00 0.00 97 1015.9
20260506083633 0 90 3.2 3.2 0.00 0.00 0.00 97 1015.9
20260506083130 0 79 3.2 4.8 0.00 0.00 0.00 97 1015.7
20260506082627 0 114 4.8 4.8 0.00 0.00 0.00 97 1015.9
20260506082122 0 90 3.2 3.2 0.00 0.00 0.00 97 1015.9
20260506081621 0 114 1.6 3.2 0.00 0.00 0.00 97 1015.9
20260506081118 0 90 1.6 3.2 0.00 0.00 0.00 97 1016.1
20260506080616 0 84 3.2 4.8 0.00 0.00 0.00 97 1016.2
20260506080112 0 85 3.2 3.2 0.00 0.00 0.00 97 1016.2
20260506073056 0 96 3.2 3.2 0.00 0.00 0.00 97 1015.9
20260506072553 0 84 0.0 3.2 0.00 0.00 0.00 97 1015.7
20260506072051 0 90 3.2 3.2 0.00 0.00 0.00 97 1015.7
20260506071548 0 85 3.2 4.8 0.00 0.00 0.00 97 1015.9
20260506071045 0 103 3.2 4.8 0.00 0.00 0.00 97 1015.9
20260506070543 0 96 1.6 3.2 0.00 0.00 0.00 97 1016.1
20260506062017 0 75 0.0 3.2 0.00 0.00 0.00 97 1015.5
20260506061512 0 90 0.0 3.2 0.00 0.00 0.00 97 1015.6
20260506061010 0 90 3.2 3.2 0.00 0.00 0.00 97 1015.2
20260506060509 0 80 3.2 3.2 0.00 0.00 0.00 97 1015.4
20260506050937 0 85 3.2 3.2 0.00 0.41 0.41 97 1015.2
20260506050435 0 105 3.2 4.8 0.00 0.41 0.41 96 1015.2
20260506044925 0 90 3.2 3.2 0.00 0.41 0.41 96 1015.2
20260506044424 0 95 3.2 4.8 0.00 0.41 0.41 96 1015.1
20260506043920 0 90 3.2 4.8 0.00 0.41 0.41 96 1015.1
20260506043418 0 90 3.2 3.2 0.00 0.41 0.41 96 1015.1
20260506042915 0 83 4.8 4.8 0.00 0.41 0.41 96 1014.9
20260506042415 0 90 3.2 3.2 0.00 0.41 0.41 96 1015.1
20260506041912 0 90 3.2 3.2 0.00 0.41 0.41 96 1015.5
20260506041410 0 86 3.2 3.2 0.00 0.41 0.41 96 1015.2
20260506040906 0 96 1.6 3.2 0.00 0.41 0.41 96 1015.1
20260506040404 0 83 1.6 3.2 0.00 0.41 0.41 96 1015.2
20260506035900 0 68 3.2 3.2 0.00 0.41 0.41 96 1015.1
20260506035358 0 90 3.2 3.2 0.00 0.41 0.41 96 1015.0
20260506034854 0 90 3.2 3.2 0.00 0.41 0.41 96 1015.0
20260506034352 0 80 3.2 4.8 0.00 0.41 0.41 96 1015.0
20260506033848 0 85 3.2 3.2 0.00 0.41 0.41 96 1014.9
20260506033345 0 74 3.2 3.2 0.00 0.41 0.41 96 1014.9
20260506032843 0 85 3.2 3.2 0.00 0.41 0.41 96 1015.0
20260506032339 0 85 3.2 4.8 0.00 0.41 0.41 96 1015.0
20260506031836 0 107 1.6 6.4 0.00 0.41 0.41 96 1014.5
20260506031333 0 103 1.6 4.8 0.00 0.41 0.41 96 1014.6
20260506030831 0 86 3.2 3.2 0.00 0.41 0.41 96 1014.5
20260506030329 0 90 1.6 3.2 0.00 0.41 0.41 96 1014.4
20260506025825 0 74 3.2 6.4 0.00 0.41 0.41 96 1014.3
20260506025321 0 103 3.2 4.8 0.00 0.41 0.41 96 1014.4
20260506024819 0 81 3.2 4.8 0.00 0.41 0.41 96 1014.3
20260506024316 0 79 3.2 3.2 0.00 0.41 0.41 96 1014.2
20260506023812 0 90 3.2 3.2 0.00 0.41 0.41 96 1014.2
20260506023309 0 90 3.2 3.2 0.00 0.41 0.41 96 1013.9
20260506022805 0 90 3.2 3.2 0.00 0.41 0.41 96 1013.9
20260506022305 0 84 3.2 3.2 0.00 0.41 0.41 96 1013.7
20260506021801 0 86 3.2 3.2 0.00 0.41 0.41 96 1013.8
20260506021258 0 90 3.2 3.2 0.00 0.41 0.41 96 1013.6
20260506020754 0 78 3.2 3.2 0.00 0.41 0.41 96 1013.3
20260506020252 0 85 3.2 3.2 0.00 0.41 0.41 96 1013.2
20260506015750 0 90 1.6 3.2 0.00 0.41 0.41 96 1013.6
20260506015247 0 85 3.2 4.8 0.00 0.41 0.41 96 1013.5
20260506014744 0 85 3.2 3.2 0.00 0.41 0.41 96 1013.2
20260506014241 0 81 3.2 3.2 0.00 0.41 0.41 96 1013.2
20260506013738 0 102 1.6 3.2 0.00 0.41 0.41 96 1013.2
20260506013235 0 90 3.2 3.2 0.00 0.41 0.41 96 1013.2
20260506012731 0 84 3.2 3.2 0.00 0.41 0.41 96 1013.2
20260506012228 0 90 3.2 3.2 0.00 0.41 0.41 96 1013.2
20260506011726 0 90 3.2 3.2 0.00 0.41 0.41 96 1012.9
20260506011221 0 84 3.2 3.2 0.00 0.41 0.41 96 1013.0
20260506010720 0 85 3.2 3.2 0.00 0.41 0.41 96 1013.0
20260506010217 0 81 3.2 3.2 0.00 0.41 0.41 96 1013.0
20260506005714 0 84 3.2 3.2 0.00 0.41 0.41 96 1012.9
20260506005211 0 90 1.6 3.2 0.00 0.41 0.41 96 1013.1
20260506004707 0 95 3.2 3.2 0.00 0.41 0.41 96 1013.1
20260506004205 0 77 3.2 3.2 0.00 0.41 0.41 96 1012.9
20260506003700 0 73 0.0 3.2 0.00 0.41 0.41 96 1012.9
20260506003157 0 85 3.2 3.2 0.00 0.41 0.41 96 1012.9
20260506002653 0 90 3.2 3.2 0.00 0.41 0.41 96 1012.9
20260506002149 0 90 3.2 3.2 0.00 0.41 0.41 96 1012.9
20260506001645 0 81 3.2 3.2 0.00 0.41 0.41 96 1012.8
20260506001142 0 90 3.2 3.2 0.00 0.41 0.41 96 1012.6
20260506000640 0 90 3.2 4.8 0.00 0.41 0.41 96 1012.6
20260506000137 0 99 3.2 4.8 0.00 0.41 0.41 96 1012.6
20260505235635 0 90 3.2 3.2 0.00 0.41 0.41 96 1012.6
20260505235132 0 98 3.2 9.7 0.00 0.41 0.41 96 1012.6
20260505234629 0 96 3.2 6.4 0.00 0.41 0.41 96 1012.6
20260505234125 0 101 3.2 6.4 0.00 0.41 0.41 96 1012.5
20260505233623 0 149 4.8 12.9 0.00 0.41 0.41 96 1012.6
20260505233120 0 152 4.8 25.7 0.00 0.41 0.41 96 1012.6
20260505232618 0 172 8.0 25.7 0.00 0.41 0.41 96 1012.5
20260505232115 0 90 1.6 20.9 0.00 0.41 0.41 96 1012.2
20260505231612 0 80 3.2 38.6 0.00 0.41 0.41 96 1012.0
20260505231110 0 5 6.4 40.2 0.00 0.41 0.41 96 1012.2
20260505230608 0 0 0.0 22.5 0.00 0.41 0.41 95 1012.2
20260505230104 0 16 8.0 8.0 0.00 0.41 0.41 95 1012.2
20260505225601 0 334 0.0 4.8 0.00 0.41 0.41 95 1012.4
20260505225056 0 0 0.0 6.4 0.00 0.41 0.41 95 1012.4
20260505224554 0 344 0.0 9.7 0.00 0.41 0.41 95 1012.3
20260505224051 0 356 3.2 9.7 0.00 0.41 0.41 95 1012.3
20260505223548 0 334 6.4 14.5 0.00 0.41 0.41 95 1011.9
20260505223044 0 357 6.4 9.7 0.00 0.41 0.41 95 1011.8
20260505222541 0 4 6.4 12.9 0.00 0.41 0.41 95 1011.8
20260505222037 1 297 0.0 9.7 0.05 0.41 0.41 95 1011.5
20260505221534 1 286 0.0 14.5 0.05 0.41 0.41 95 1011.6
20260505221030 1 319 3.2 16.1 0.00 0.41 0.41 95 1011.6
20260505220528 1 0 4.8 14.5 0.05 0.41 0.41 95 1011.6
20260505220026 1 289 4.8 14.5 0.05 0.41 0.41 94 1011.6
20260505215524 2 13 8.0 19.3 0.00 0.38 0.38 94 1011.3
20260505215021 2 0 9.7 14.5 0.00 0.38 0.38 94 1011.2
20260505214519 2 344 9.7 14.5 0.00 0.38 0.38 94 1011.6
20260505214015 2 38 6.4 8.0 0.00 0.38 0.38 94 1011.3
20260505213514 2 0 1.6 9.7 0.00 0.38 0.38 95 1011.1
20260505213009 2 36 4.8 6.4 0.00 0.38 0.38 94 1011.5
20260505212506 3 343 6.4 6.4 0.00 0.38 0.38 94 1011.5
20260505212003 3 81 0.0 8.0 0.00 0.38 0.38 95 1011.3
20260505211501 3 102 3.2 4.8 0.00 0.38 0.38 95 1011.3
20260505210957 3 79 3.2 6.4 0.00 0.38 0.38 95 1011.5
20260505210453 3 259 0.0 9.7 0.00 0.38 0.38 95 1011.3
20260505205950 3 345 4.8 8.0 0.05 0.38 0.38 94 1011.5
20260505205449 2 14 0.0 6.4 0.05 0.38 0.38 94 1011.5
20260505204945 3 341 6.4 6.4 0.00 0.38 0.38 94 1011.8
20260505204444 3 103 0.0 6.4 0.00 0.38 0.38 94 1011.7
20260505203940 3 7 3.2 8.0 0.00 0.38 0.38 94 1012.0
20260505203437 3 334 8.0 8.0 0.00 0.38 0.38 94 1012.0
20260505202933 3 3 3.2 6.4 0.00 0.38 0.38 94 1012.0
20260505202429 3 342 3.2 8.0 0.00 0.38 0.38 95 1012.3
20260505201926 3 354 1.6 4.8 0.00 0.38 0.38 95 1012.2
20260505201423 3 328 0.0 6.4 0.00 0.38 0.38 94 1012.4
20260505200921 3 63 3.2 8.0 0.00 0.38 0.38 94 1012.5
20260505200418 2 131 0.0 6.4 0.05 0.38 0.38 95 1012.4
20260505195914 2 109 0.0 9.7 0.05 0.38 0.38 95 1012.2
20260505195411 3 93 4.8 6.4 0.00 0.38 0.38 95 1012.3
20260505194908 3 126 1.6 6.4 0.00 0.38 0.38 95 1012.4
20260505194406 2 21 0.0 6.4 0.00 0.38 0.38 95 1012.3
20260505193905 3 292 3.2 6.4 0.00 0.38 0.38 95 1012.2
20260505193404 3 116 4.8 6.4 0.00 0.38 0.38 95 1012.4
20260505192901 3 60 0.0 6.4 0.00 0.38 0.38 95 1012.3
20260505192359 3 94 3.2 9.7 0.05 0.38 0.38 95 1012.4
20260505191856 3 81 6.4 11.3 0.13 0.38 0.38 94 1012.3
20260505191355 2 140 1.6 8.0 0.05 0.36 0.36 95 1012.3
20260505190852 2 28 3.2 6.4 0.00 0.36 0.36 95 1012.5
20260505190347 3 114 1.6 4.8 0.00 0.36 0.36 95 1012.5
20260505185843 2 12 1.6 6.4 0.00 0.36 0.36 94 1012.5
20260505185340 2 23 1.6 6.4 0.00 0.36 0.36 94 1012.4
20260505184836 2 8 4.8 6.4 0.00 0.36 0.36 94 1012.6
20260505184333 3 292 0.0 4.8 0.00 0.36 0.36 95 1012.8
20260505183830 2 23 1.6 6.4 0.00 0.36 0.36 95 1013.0
20260505183326 3 8 3.2 6.4 0.00 0.36 0.36 94 1013.0
20260505182823 3 21 4.8 6.4 0.00 0.36 0.36 95 1013.0
20260505182320 2 99 4.8 6.4 0.00 0.36 0.36 95 1013.2
20260505181817 2 64 4.8 6.4 0.05 0.36 0.36 95 1013.1
20260505181314 2 45 3.2 6.4 0.05 0.36 0.36 95 1013.5
20260505180811 2 341 3.2 6.4 0.00 0.33 0.33 95 1013.3
20260505180307 2 69 1.6 6.4 0.00 0.33 0.33 95 1013.0
20260505175804 2 19 3.2 8.0 0.00 0.33 0.33 95 1013.2
20260505175300 2 354 6.4 6.4 0.00 0.33 0.33 95 1013.5
20260505174756 2 90 1.6 8.0 0.00 0.33 0.33 95 1013.6
20260505174254 2 96 3.2 6.4 0.00 0.33 0.33 95 1013.3
20260505173750 2 32 0.0 11.3 0.00 0.33 0.33 95 1013.2
20260505173247 2 6 4.8 6.4 0.00 0.33 0.33 95 1013.3
20260505172743 2 117 0.0 4.8 0.00 0.33 0.33 95 1013.6
20260505172241 2 11 0.0 4.8 0.00 0.33 0.33 95 1013.8
20260505171741 2 117 0.0 4.8 0.00 0.33 0.33 95 1013.6
20260505171238 2 105 0.0 3.2 0.00 0.33 0.33 95 1013.3
20260505170734 2 14 3.2 3.2 0.00 0.33 0.33 95 1013.7
20260505170232 2 90 0.0 3.2 0.00 0.33 0.33 95 1013.8
20260505165727 2 0 0.0 6.4 0.00 0.33 0.33 95 1013.8
20260505165223 2 90 0.0 4.8 0.00 0.33 0.33 95 1013.5
20260505164718 2 108 0.0 3.2 0.00 0.33 0.33 95 1013.8
20260505164216 2 81 4.8 6.4 0.00 0.33 0.33 95 1013.6
20260505163714 2 90 0.0 3.2 0.00 0.33 0.33 95 1013.6
20260505163212 2 60 1.6 3.2 0.05 0.33 0.33 96 1013.8
20260505162709 2 112 3.2 4.8 0.05 0.33 0.33 95 1014.1
20260505162206 2 31 4.8 8.0 0.00 0.33 0.33 95 1013.9
20260505161703 2 114 1.6 6.4 0.00 0.33 0.33 95 1014.1
20260505161201 2 263 0.0 3.2 0.00 0.33 0.33 95 1013.8
20260505160658 2 336 6.4 6.4 0.05 0.33 0.33 96 1014.2
20260505160156 1 284 4.8 8.0 0.05 0.33 0.33 95 1014.2
20260505153135 2 349 0.0 3.2 0.00 0.30 0.30 96 1014.1
20260505152631 1 29 0.0 4.8 0.00 0.30 0.30 95 1014.2
20260505152127 1 300 3.2 4.8 0.05 0.30 0.30 95 1014.3
20260505151623 1 45 3.2 4.8 0.05 0.30 0.30 95 1014.3
20260505151120 1 357 0.0 4.8 0.00 0.30 0.30 95 1014.2